Home > Weather > Kabul > Past weeks

Flag for Afghanistan Weather for the Past 2 Weeks in Kabul, Afghanistan

Now
95 °F

Broken clouds.


Feels Like: 95 °F
Forecast: 55 / 69 °F
Wind: 12 mph from Northeast

Location: Peshawar Airport

Current Time: May 2, 2016 at 5:52:46 PM

Latest Report: May 2, 2016 at 5:30 PM


Visibility: 2 mi

Pressure: 29.59 "Hg (24.24 "Hg at 1800m altitude)

Humidity: 32%

Dew Point: 61 °F

Location of KabulLocation

Historic Weather in Kabul — Graph

°F

Kabul Temperature Yesterday

Maximum temperature yesterday: 102 °F (at 2:30 PM)
Minimum temperature yesterday: 73 °F (at 5:30 AM)
Average temperature yesterday: 89 °F

High & Low Weather Summary for the Past Weeks

 TemperatureHumidityPressure
High102 °F (May 1, 2:30 PM)88% (Apr 18, 2:30 AM)29.98 "Hg (Apr 18, 2:30 AM)
Low61 °F (Apr 22, 4:30 AM)24% (Apr 23, 3:00 PM)29.59 "Hg (May 2, 3:30 PM)
Average80 °F45%29.78 "Hg
* Reported Apr 17 4:30 PM — May 2 4:30 PM, Kabul, Weather by CustomWeather, © 2016

Note: Actual official high and low records may vary slightly from our data, if they occured in-between our weather recording intervals... More about our weather records

Advertising

Kabul Weather History for the Previous 24 Hours

Scroll right to see more
 ConditionsComfort  
Time TempWeatherWind HumidityBarometerVisibility
4:30 PM
Mon, May 2
97 °FScattered clouds.9 mph32%29.59 "Hg2 mi
3:30 PM97 °FBroken clouds.7 mph32%29.59 "Hg2 mi
2:30 PM99 °FScattered clouds.7 mph31%29.62 "Hg2 mi
1:30 PM99 °FBroken clouds.9 mph31%29.62 "Hg2 mi
1:00 PM97 °FBroken clouds.7 mph30%29.65 "Hg2 mi
12:30 PM97 °FBroken clouds.7 mph30%29.65 "Hg2 mi
12:00 PM95 °FBroken clouds.7 mph32%29.68 "Hg2 mi
11:30 AM95 °FBroken clouds.7 mph32%29.68 "Hg2 mi
11:00 AM95 °FScattered clouds.7 mph32%29.68 "Hg2 mi
9:30 AM93 °FScattered clouds.7 mph30%29.71 "Hg2 mi
9:00 AM90 °FScattered clouds.7 mph33%29.68 "Hg2 mi
8:30 AM90 °FScattered clouds.7 mph33%29.68 "Hg2 mi
8:00 AM82 °FHaze.9 mph45%29.68 "Hg2 mi
7:30 AM82 °FHaze.7 mph45%29.68 "Hg2 mi
7:00 AM77 °FScattered clouds.7 mph47%29.65 "Hg2 mi
6:30 AM77 °FScattered clouds.7 mph47%29.65 "Hg2 mi
6:00 AM75 °FScattered clouds.7 mph54%29.65 "Hg2 mi
5:30 AM75 °FScattered clouds.7 mph54%29.65 "Hg2 mi
5:00 AM75 °FHaze.5 mph54%29.62 "Hg2 mi
4:30 AM75 °FHaze.5 mph54%29.62 "Hg2 mi
4:00 AM75 °FHaze.No wind50%29.62 "Hg2 mi
3:30 AM75 °FHaze.No wind50%29.62 "Hg2 mi
3:00 AM77 °FHaze.No wind47%29.62 "Hg2 mi
1:30 AM79 °FHaze.No wind48%29.65 "Hg2 mi
1:00 AM81 °FHaze.No wind45%29.65 "Hg2 mi
12:30 AM81 °FHaze.No wind45%29.65 "Hg2 mi
12:00 AM82 °FHaze.No wind42%29.65 "Hg2 mi
11:30 PM
Sun, May 1
82 °FHaze.No wind42%29.65 "Hg2 mi
11:00 PM84 °FHaze.No wind37%29.65 "Hg2 mi
10:30 PM84 °FHaze.No wind37%29.65 "Hg2 mi
10:00 PM86 °FHaze.No wind35%29.65 "Hg2 mi
9:30 PM86 °FHaze.No wind35%29.65 "Hg2 mi
9:00 PM88 °FHaze.5 mph33%29.62 "Hg2 mi
8:30 PM88 °FHaze.5 mph33%29.62 "Hg2 mi
8:00 PM88 °FHaze.7 mph35%29.62 "Hg2 mi
7:30 PM88 °FHaze.7 mph35%29.62 "Hg2 mi
7:00 PM91 °FHaze.7 mph34%29.62 "Hg2 mi
6:30 PM91 °FHaze.7 mph34%29.62 "Hg2 mi
6:00 PM97 °FHaze.5 mph30%29.62 "Hg2 mi
5:30 PM97 °FHaze.5 mph30%29.62 "Hg2 mi
5:00 PM100 °FScattered clouds.5 mph29%29.62 "Hg3 mi
Weather by CustomWeather, © 2016

See weather overviewHow to use our weather pages